sat.trackr.live / text

‹ back to catalog

ICEYE-X48

NORAD 63253 · 2025-052AV

PAYLOAD ACTIVE UNKNOWN

§ Identity

Operator
Country
US
Launch date
2025-03-15
Launch site
AFWTR
Launch vehicle
Mass (kg)
RCS (m²)

External: N2YO · Heavens-Above · Gunter

§ Orbital elements

Epoch: 2026-05-25T03:26:17.505888Z

Period
96.14 min
Inclination
97.6904°
Eccentricity
0.0001125
Mean motion
14.97821164 rev/d
Perigee alt
572.8 km
Apogee alt
574.4 km
Semi-major
6,951.8 km
B*
1.6194e-4
RAAN
37.6836°
Arg perigee
332.4762°
Mean anomaly
27.6400°
Rev number
6,522

§ Raw data

ICEYE-X481 63253U 25052AV  26145.14325817  .00001845  00000+0  16194-3 0  99932 63253  97.6904  37.6836 0001125 332.4762  27.6400 14.97821164 65222

JSON: /api/v1/satellites/63253 · /tle

For live sub-satellite position, see the globe view (requires WebGL).

§ Visibility from observer

Set your observer location to see the next 7 days of passes ≥ 10°. The values pass through the URL so the page stays shareable.

No JS? Fill the form by hand. The geolocation button needs JavaScript.